Flag for U.S.A. Weather past 2 weeks in Louisville, Kentucky, U.S.A.

Now
79 °F

Clear.


Feels Like: 81 °F
Forecast: 72 / 92 °F
Wind: No wind

Location: Standiford Field

Current Time: Sep 4, 2015 at 1:56:16 AM

Latest Report: Sep 4, 2015 at 12:56 AM


Visibility: 6 mi

Pressure: 29.95 "Hg

Humidity: 67%

Dew point: 67 °F

Location of LouisvilleLocation

Historic Weather in Louisville — Graph

°F

Louisville temperature yesterday

Maximum temperature yesterday: 93 °F (at 2:56 PM)
Minimum temperature yesterday: 71 °F (at 6:56 AM)
Average temperature yesterday: 83 °F

Past Weeks' High & Low Weather Summary

 TemperatureHumidityPressure
High93 °F (Sep 3, 2:56 PM)94% (Aug 20, 12:02 AM)30.17 "Hg (Aug 20, 12:02 AM)
Low59 °F (Aug 25, 6:56 AM)36% (Aug 24, 4:56 PM)29.81 "Hg (Aug 20, 12:02 AM)
Average75 °F62%30.05 "Hg
* Reported Aug 20 12:02 AM — Sep 3 11:56 PM, Louisville, Weather by CustomWeather, © 2015

Note: Actual official high and low records may vary slightly from our data, if they occured in-between our weather recording intervals... More about our weather records

Advertising

Louisville weather history for previous 24 hours

 ConditionsComfort  
Time TempWeatherWind HumidityBarometerVisibility
11:56 PM
Thu, Sep 3
81 °FClear.No wind62%29.94 "Hg7 mi
10:56 PM82 °FClear.3 mph63%29.95 "Hg7 mi
9:56 PM85 °FClear.3 mph50%29.94 "Hg7 mi
8:56 PM84 °FSunny.6 mph53%29.92 "Hg7 mi
7:56 PM87 °FPassing clouds.7 mph46%29.91 "Hg7 mi
6:56 PM90 °FPassing clouds.3 mph41%29.90 "Hg7 mi
5:56 PM92 °FPassing clouds.3 mph40%29.91 "Hg7 mi
4:56 PM93 °FScattered clouds.9 mph38%29.92 "Hg7 mi
3:56 PM91 °FScattered clouds.3 mph42%29.94 "Hg7 mi
2:56 PM93 °FPartly sunny.10 mph40%29.96 "Hg7 mi
1:56 PM90 °FScattered clouds.3 mph43%29.98 "Hg7 mi
12:56 PM90 °FSunny.8 mph45%29.99 "Hg7 mi
11:56 AM88 °FHaze.5 mph50%30.01 "Hg6 mi
10:56 AM86 °FSunny.No wind53%30.02 "Hg5 mi
9:56 AM82 °FHaze.No wind63%30.02 "Hg4 mi
8:56 AM77 °FHaze.No wind77%30.03 "Hg4 mi
7:56 AM71 °FFog.3 mph90%30.02 "Hg4 mi
6:56 AM71 °FFog.3 mph90%30.01 "Hg5 mi
5:56 AM73 °FFog.No wind88%30.00 "Hg5 mi
4:56 AM75 °FClear.No wind79%29.99 "Hg6 mi
3:56 AM74 °FClear.5 mph85%29.99 "Hg6 mi
2:56 AM75 °FClear.No wind82%29.99 "Hg6 mi
1:56 AM77 °FClear.No wind77%30.00 "Hg6 mi
Weather by CustomWeather, © 2015

See weather overviewHow to use our weather pages